Location: Vulcan
(50.4000°N, 113.2500°W)
Time: 11:06:52
(UTC-06:00)

Tiangong 2 - Visible Passes

Search period start: 20 March 2019 00:00
Search period end: 30 March 2019 00:00
Orbit: 379 x 390 km, 42.8° (Epoch: 19 March)

Date Brightness Start Highest point End Pass type
(mag) Time Alt. Az. Time Alt. Az. Time Alt. Az.
20 Mar 4.0 05:12:44 10° SE 05:12:44 10° SE 05:12:48 10° SE visible
20 Mar 3.4 06:45:12 10° SW 06:46:25 12° SSW 06:47:38 10° S visible
21 Mar 3.5 05:48:23 13° S 05:48:23 13° S 05:49:08 10° SSE visible
